Edwards, CA

3:51 PM PDT on September 28, 2016 (GMT -0700)
Edwards Air Force Base

Weather History for KEDW - February, 2013

Change the Weather History Date:

Saturday, February 2, 2013

  Actual Average Record
Temperature  
Mean Temperature 51 °F -  
Max Temperature 64 °F 57 °F 71 °F (2000)
Min Temperature 38 °F 30 °F 21 °F (2002)
Degree Days  
Heating Degree Days 14    
Growing Degree Days 1 (Base 50)    
Moisture  
Dew Point 35 °F    
Average Humidity 53    
Maximum Humidity 97    
Minimum Humidity 28    
Precipitation  
Precipitation 0.00 in - - ()
Sea Level Pressure  
Sea Level Pressure 30.23 in    
Wind  
Wind Speed 4 mph (NW)    
Max Wind Speed 9 mph    
Max Gust Speed -    
Visibility 10 miles    
Events Rain    
Averages and records for this station are not official NWS values.
T = Trace of Precipitation, MM = Missing Value Source: NWS Daily Summary

Daily Weather History Graph

Daily Weather History Graph

Search for Another Location

Airport or City:

Trip Planner

Search our weather history database for the weather conditions in past years. The results will help you decide how hot, cold, wet, or windy it might be!

Date:

Astronomy

Feb. 02, 2013 Rise Set
Actual Time 6:49 AM PST 5:21 PM PST
Civil Twilight 6:22 AM PST 5:48 PM PST
Nautical Twilight 5:52 AM PST 6:18 PM PST
Astronomical Twilight 5:22 AM PST 6:48 PM PST
Moon No Moon Rise 10:21 AM PST (2/2)
Length of Visible Light 11h 25m
Length of Day
10h 32m
Waning Gibbous, 58% of the Moon is Illuminated
Feb 2
Waning Gibbous
Feb 3
Last Quarter
Feb 9
New
Feb 17
First Quarter
Feb 25
Full

Hourly Weather History & Observations

Time (PST) Temp. Windchill Dew Point Humidity Pressure Visibility Wind Dir Wind Speed Gust Speed Precip Events Conditions
12:58 AM 41.4 °F 36.8 °F 29.7 °F 63% 30.26 in 10.0 mi West 6.9 mph - N/A   Clear
1:58 AM 40.3 °F - 29.8 °F 66% 30.25 in 10.0 mi WNW 2.3 mph - N/A   Clear
2:58 AM 39.9 °F - 29.1 °F 65% 30.24 in 10.0 mi NNE 2.3 mph - N/A   Clear
3:58 AM 39.4 °F 35.2 °F 30.4 °F 70% 30.24 in 10.0 mi WSW 5.8 mph - N/A   Clear
4:58 AM 41.2 °F - 31.6 °F 69% 30.25 in 10.0 mi NW 1.2 mph - N/A   Clear
5:58 AM 38.8 °F - 30.0 °F 71% 30.26 in 60.0 mi ESE 2.3 mph - N/A   Overcast
6:58 AM 41.0 °F 39.0 °F 32.4 °F 71% 30.29 in 90.0 mi West 3.5 mph - N/A   Overcast
7:58 AM 43.0 °F 39.5 °F 32.4 °F 66% 30.31 in 90.0 mi South 5.8 mph - N/A   Overcast
8:58 AM 45.9 °F - 33.6 °F 62% 30.32 in 90.0 mi Calm Calm - N/A   Overcast
9:58 AM 50.7 °F - 31.8 °F 48% 30.32 in 90.0 mi NNE 2.3 mph - N/A   Overcast
10:58 AM 54.3 °F - 32.0 °F 43% 30.30 in 90.0 mi NNE 2.3 mph - N/A   Overcast
11:58 AM 57.0 °F - 32.2 °F 39% 30.27 in 90.0 mi NNE 2.3 mph - N/A   Mostly Cloudy
12:58 PM 61.2 °F - 32.2 °F 34% 30.23 in 90.0 mi North 3.5 mph - N/A   Mostly Cloudy
1:58 PM 64.6 °F - 30.4 °F 28% 30.20 in 90.0 mi NNW 5.8 mph - N/A   Overcast
2:58 PM 64.9 °F - 30.6 °F 28% 30.19 in 90.0 mi North 5.8 mph - N/A   Overcast
3:58 PM 64.6 °F - 30.7 °F 28% 30.19 in 80.0 mi North 5.8 mph - N/A   Overcast
4:58 PM 63.1 °F - 30.7 °F 30% 30.19 in 70.0 mi NW 3.5 mph - N/A   Mostly Cloudy
5:58 PM 59.0 °F - 32.0 °F 36% 30.20 in 60.0 mi West 4.6 mph - N/A   Mostly Cloudy
6:58 PM 57.7 °F - 31.8 °F 37% 30.21 in 10.0 mi WSW 4.6 mph - N/A   Partly Cloudy
7:38 PM 57.2 °F - 32.0 °F 38% 30.21 in 10.0 mi SW 5.8 mph - N/A   Mostly Cloudy
7:58 PM 56.8 °F - 32.4 °F 40% 30.22 in 10.0 mi SW 5.8 mph - N/A   Mostly Cloudy
8:08 PM 57.2 °F - 32.0 °F 38% 30.22 in 10.0 mi West 6.9 mph - N/A   Scattered Clouds
8:14 PM 57.2 °F - 32.0 °F 38% 30.22 in 10.0 mi West 9.2 mph - N/A Rain Light Rain
8:40 PM 60.8 °F - 32.0 °F 34% 30.22 in 10.0 mi West 4.6 mph - N/A   Partly Cloudy
8:45 PM 59.0 °F - 32.0 °F 36% 30.22 in 10.0 mi NE 3.5 mph - N/A Rain Light Rain
8:50 PM 59.0 °F - 32.0 °F 36% 30.22 in 10.0 mi Variable 4.6 mph - N/A Rain Light Rain
8:58 PM 60.4 °F - 34.2 °F 37% 30.21 in 10.0 mi South 4.6 mph - 0.00 in Rain Light Rain
9:58 PM 55.0 °F - 44.8 °F 68% 30.21 in 10.0 mi ENE 2.3 mph - 0.00 in Rain Light Rain
10:04 PM 55.4 °F - 44.6 °F 67% 30.21 in 10.0 mi Variable 2.3 mph - N/A   Mostly Cloudy
10:06 PM 55.4 °F - 44.6 °F 67% 30.21 in 10.0 mi NNE 1.2 mph - N/A   Light Drizzle
10:11 PM 55.4 °F - 44.6 °F 67% 30.21 in 10.0 mi NNE 1.2 mph - N/A Rain Light Rain
10:23 PM 55.4 °F - 44.6 °F 67% 30.21 in 10.0 mi ESE 3.5 mph - N/A   Mostly Cloudy
10:52 PM 53.6 °F - 44.6 °F 72% 30.21 in 10.0 mi Calm Calm - N/A Rain Light Rain
10:58 PM 54.0 °F - 42.6 °F 65% 30.20 in 10.0 mi SW 2.3 mph - 0.00 in Rain Light Rain
11:17 PM 53.6 °F - 48.2 °F 82% 30.21 in 10.0 mi SE 4.6 mph - N/A   Overcast
11:58 PM 51.8 °F - 50.9 °F 97% 30.20 in 10.0 mi South 5.8 mph - 0.00 in   Overcast